Theta_e
297 296 297 298 298 299 299 299 300 299 299 301 302 302 304 305 305 305 304 304 304 303 303 303 304 304 305 306 307 308 309 309 309 308 308 309 309 311 313 313 314 314 313 313 311 310 312 311 312 313 313 314 314 314 314 315 314 314 314 315 315 316 316 314 313 313 313 314 315 315 316 317 315 314 315 315 314 315 313 314 316 312 314 313 312 325 327
297 297 297 298 299 300 300 300 300 299 300 301 302 302 304 304 304 305 304 303 304 304 305 304 303 304 306 307 308 309 309 309 308 308 308 308 309 311 313 313 313 313 312 312 312 311 312 312 313 313 312 314 314 314 314 314 314 314 314 315 315 315 315 314 314 314 314 316 316 315 315 316 316 314 315 315 315 316 314 316 316 313 314 313 312 324 325
298 298 298 298 299 300 300 300 300 300 300 301 302 303 304 304 304 304 303 303 304 305 306 307 306 305 307 308 308 309 309 308 308 308 308 308 309 311 313 313 313 313 312 313 312 312 312 313 313 313 314 315 315 314 314 314 314 313 315 315 315 315 315 315 315 314 314 316 316 315 314 315 316 316 315 315 315 315 315 314 313 313 315 312 314 323 321
298 298 298 298 299 300 300 301 301 301 300 301 303 303 304 305 304 303 303 304 305 305 306 308 308 307 307 308 308 308 308 308 308 308 308 309 310 312 313 313 313 312 313 314 314 312 312 313 313 313 316 317 315 315 314 314 315 315 316 316 315 316 318 320 319 317 316 316 315 315 316 315 315 315 315 316 316 316 316 313 313 314 314 314 319 322 319
298 298 298 298 299 300 300 301 302 302 301 302 303 304 305 306 304 303 303 304 304 304 305 308 309 308 307 308 308 308 308 308 309 309 310 311 312 312 312 312 313 313 314 315 315 314 312 314 315 316 318 317 314 315 315 314 316 316 315 316 315 317 321 324 324 321 319 319 318 317 317 315 315 315 315 316 317 317 316 314 316 317 315 319 324 321 319
297 298 298 298 299 300 301 303 303 303 302 303 304 306 307 306 304 304 304 304 303 303 305 307 308 308 308 308 309 309 308 308 309 311 311 312 312 312 312 312 312 313 313 314 316 316 315 315 316 317 318 317 316 316 314 315 317 316 314 316 316 317 320 324 324 321 320 320 320 318 316 316 316 316 318 318 317 318 317 316 319 321 320 323 324 322 319
298 298 298 299 299 300 302 303 304 303 304 304 305 306 307 306 305 305 306 307 307 306 307 309 309 309 308 307 307 308 309 310 311 311 311 312 312 312 312 313 312 312 313 315 316 317 317 316 316 318 319 318 318 316 314 315 317 316 314 316 316 317 321 323 323 322 320 320 320 320 319 319 319 317 318 318 317 318 319 319 321 324 325 325 323 321 319
298 298 299 299 300 302 303 304 304 304 305 306 306 306 307 307 307 307 307 308 309 309 310 310 309 308 307 307 307 307 309 310 311 310 311 311 312 312 312 313 313 313 314 314 315 317 318 317 318 320 319 319 318 318 316 316 316 315 315 318 319 319 321 323 323 322 322 322 321 321 321 321 322 320 319 319 321 322 324 325 326 326 325 323 320 317 315
298 298 299 300 301 303 304 305 305 305 305 306 306 306 307 307 308 308 309 309 308 309 310 309 307 307 306 307 308 309 310 311 311 310 310 310 312 312 312 313 315 316 315 315 316 317 318 317 319 319 319 319 318 319 319 317 316 315 317 321 321 319 320 323 322 321 322 323 322 323 323 323 324 323 323 323 325 326 325 326 326 325 322 319 317 315 312
298 299 300 301 302 303 304 305 305 304 304 305 306 306 306 307 308 308 308 309 309 310 309 307 307 308 308 308 308 310 311 311 311 310 310 309 311 313 314 315 316 317 316 317 318 317 316 318 319 318 318 319 318 318 319 317 316 317 319 321 320 318 320 322 320 320 322 323 323 323 321 320 321 320 320 322 323 324 324 323 324 323 321 319 319 315 310
300 301 301 302 303 303 304 304 304 304 303 304 305 306 306 306 307 308 308 308 309 310 310 308 308 309 310 310 309 310 311 310 311 311 310 310 311 312 313 314 316 317 317 318 318 317 316 316 318 319 318 319 319 318 318 317 316 319 319 319 319 319 320 320 320 320 322 322 323 322 320 318 318 316 316 319 321 322 322 320 319 318 317 316 315 311 308
301 302 302 303 303 303 303 304 304 303 303 303 304 305 305 305 306 308 308 308 309 311 310 309 310 311 311 311 310 309 310 311 311 311 310 311 312 312 313 315 316 316 315 316 316 317 317 316 317 318 318 318 318 318 317 317 317 319 318 319 319 319 319 320 319 319 320 320 322 324 322 318 316 314 315 318 319 318 317 316 316 315 313 311 310 308 308
302 303 303 303 303 303 303 303 303 302 302 302 303 304 305 305 306 308 309 308 309 311 310 309 310 311 310 310 310 310 311 312 311 312 312 312 313 313 315 316 316 315 315 316 316 317 319 318 317 317 317 317 318 317 317 318 318 318 317 318 319 319 319 319 318 318 319 319 321 323 320 315 314 315 315 316 316 315 315 314 313 313 312 310 309 308 308
302 302 303 303 303 303 302 302 301 301 302 302 303 304 305 305 306 307 308 309 309 310 309 309 310 311 310 310 310 310 311 312 312 312 313 313 313 314 314 314 314 314 315 316 317 317 317 317 316 317 317 317 318 318 318 318 318 319 318 318 319 319 318 318 318 319 319 319 319 317 315 315 315 315 315 316 316 316 316 314 311 311 311 310 308 306 306
302 302 302 302 302 301 300 300 301 302 303 304 303 304 305 305 305 306 307 309 309 309 309 309 310 310 310 310 311 311 311 311 312 312 312 313 313 313 312 312 312 312 313 316 317 316 316 316 316 317 317 316 317 318 318 317 318 319 320 319 319 319 319 318 318 318 317 318 318 316 317 318 317 315 315 316 317 316 315 314 311 311 310 309 307 306 305
302 302 302 301 300 300 299 300 302 303 305 305 304 305 305 305 305 306 307 309 309 309 309 309 310 310 311 311 311 310 311 311 312 312 312 312 312 311 311 310 310 310 312 315 316 315 315 316 316 317 317 317 317 318 318 318 318 318 318 319 319 320 320 318 317 318 317 318 319 319 319 319 317 315 315 315 317 317 316 317 314 310 309 309 307 306 306
301 302 301 300 299 299 300 301 304 305 306 306 305 305 306 306 306 307 307 309 311 310 309 309 311 311 311 310 310 310 311 311 311 312 312 311 312 312 311 310 310 311 312 314 315 314 314 315 316 316 316 316 317 318 318 318 319 318 318 318 318 319 319 317 317 318 318 318 318 318 317 316 316 316 315 316 316 316 318 319 316 310 309 309 308 307 306
300 300 300 299 299 299 301 303 305 306 306 306 306 306 306 307 307 307 307 310 312 310 309 309 310 311 311 310 310 310 310 311 311 311 311 312 312 312 312 312 312 312 313 314 314 314 314 314 315 316 316 316 316 317 317 318 318 318 318 318 318 319 318 317 317 317 317 317 318 316 315 315 316 315 315 315 316 317 318 318 314 310 309 309 308 308 307
300 300 299 298 299 300 302 304 305 306 306 306 306 308 308 307 306 306 308 311 313 309 308 309 310 310 311 310 311 311 310 311 311 310 310 311 311 312 312 312 313 313 313 314 314 314 315 315 315 315 315 315 316 317 317 317 318 318 318 318 318 318 317 317 317 317 317 317 317 316 315 314 314 315 315 315 316 317 316 314 311 309 309 309 308 308 307
300 300 299 298 300 301 303 304 304 304 305 305 307 308 308 307 306 307 308 310 313 310 309 310 309 310 310 310 311 311 311 312 312 311 311 310 311 312 311 311 313 313 313 313 313 313 313 313 314 314 313 315 317 317 316 316 316 316 317 318 318 317 316 316 316 316 316 317 317 317 316 314 314 314 314 314 315 315 313 311 310 309 308 308 307 307 307
300 300 299 299 301 302 303 304 304 303 304 304 306 309 309 307 305 307 308 309 311 312 309 309 309 309 309 309 310 310 311 311 312 313 313 311 310 312 311 311 313 313 313 313 313 313 313 313 314 315 314 315 316 316 315 316 315 314 315 317 317 316 317 316 316 315 316 316 316 316 315 314 314 314 314 313 314 313 312 311 310 308 307 307 307 306 306
300 300 299 300 301 302 303 304 304 303 304 303 304 309 311 307 305 306 306 308 310 311 310 309 309 309 309 309 309 309 309 310 310 312 314 313 311 311 312 313 313 313 314 315 313 313 313 314 313 314 314 314 314 315 315 315 315 314 314 315 316 315 315 316 314 312 314 315 314 313 314 313 313 314 313 313 313 312 311 311 310 309 308 307 306 305 305
301 300 300 300 302 303 304 304 304 304 304 303 304 308 309 306 305 306 307 308 311 311 310 310 310 309 309 309 309 309 309 309 309 310 310 312 312 311 312 313 313 312 313 315 315 314 313 313 313 313 313 313 314 314 314 314 314 315 314 314 314 314 315 315 312 310 310 311 311 312 313 313 312 312 312 312 312 311 311 310 309 309 309 307 306 305 304
301 301 301 301 303 304 304 304 305 304 304 304 304 304 306 305 305 305 307 310 312 311 309 310 310 309 309 308 308 309 309 309 310 310 309 310 313 314 312 312 313 313 313 313 314 315 313 313 313 313 314 315 314 313 313 314 314 314 313 313 313 314 315 315 313 311 312 311 310 311 312 311 311 311 311 311 311 311 310 310 309 309 308 307 306 305 304
301 301 301 302 303 304 304 305 305 304 304 304 304 304 306 307 306 305 308 311 312 310 309 310 309 309 308 308 308 309 308 309 310 311 311 311 314 315 314 312 311 314 314 312 312 313 312 312 313 312 313 315 314 313 313 314 314 314 313 313 313 314 314 314 313 312 312 311 310 311 311 311 311 310 310 311 310 310 310 309 309 308 307 306 306 305 305
301 301 302 303 304 305 305 305 305 305 304 304 304 305 306 307 306 305 308 311 311 310 309 310 309 308 308 308 308 308 308 309 309 311 312 312 312 313 313 312 310 312 313 312 312 313 312 311 312 312 312 314 314 314 314 314 314 314 313 313 313 313 313 313 311 310 309 309 309 310 310 310 310 310 310 310 310 309 309 308 308 307 307 306 306 306 305
301 302 302 303 304 305 305 305 305 305 305 304 304 305 305 306 305 306 307 309 310 309 308 309 310 308 308 308 308 307 308 309 309 310 311 312 312 313 313 313 312 312 312 311 311 312 312 312 313 313 313 314 314 314 314 314 314 314 313 313 313 313 312 311 310 309 309 309 310 310 310 309 309 309 309 309 309 308 308 307 307 307 306 306 306 305 305
301 302 303 304 304 305 305 305 305 305 305 305 304 304 305 305 305 306 306 307 309 311 310 309 310 309 308 308 307 307 308 309 309 310 310 311 312 313 313 313 313 313 312 311 311 311 312 312 312 313 313 313 313 314 314 314 313 313 312 312 312 312 312 311 311 311 311 310 310 311 311 310 308 308 308 308 308 308 307 307 307 307 306 306 305 305 305
301 302 303 304 304 304 305 305 304 304 305 305 304 305 307 306 305 306 307 307 309 311 310 308 309 309 309 308 307 307 308 309 309 310 310 310 311 312 312 312 312 312 312 311 311 311 311 311 312 313 313 313 313 312 312 312 312 311 311 311 312 312 312 312 312 312 312 311 310 311 310 309 307 307 308 308 308 307 307 307 307 306 306 306 305 305 305
301 302 303 304 304 304 304 304 304 304 305 304 305 307 310 308 306 306 306 307 308 310 310 309 308 308 308 308 308 307 307 308 309 309 310 310 310 310 311 311 311 311 311 310 310 311 311 310 311 312 311 312 312 311 310 311 311 310 309 310 311 311 311 311 312 311 311 310 310 310 309 308 307 307 307 307 308 307 307 307 306 306 306 305 305 305 304
301 302 303 303 304 304 304 304 304 304 305 305 307 309 310 309 307 306 306 306 307 309 310 309 308 308 308 307 307 307 307 308 308 308 309 310 310 310 310 310 310 310 310 310 310 310 310 310 311 311 311 310 311 311 310 311 310 309 309 310 310 310 310 311 311 310 310 309 309 308 308 307 307 307 307 307 307 307 306 306 306 306 305 305 304 303 302
300 302 302 303 304 304 304 304 304 304 304 305 306 306 306 306 306 305 305 306 306 308 309 308 308 308 307 307 307 307 307 308 308 308 308 309 310 309 309 309 309 309 309 309 309 309 309 310 311 311 311 310 310 311 311 311 309 309 309 309 309 309 310 310 310 309 309 308 308 308 308 307 307 307 307 307 306 306 306 306 305 305 304 303 303 302 301
300 301 302 303 303 304 305 304 304 304 304 304 305 305 304 304 305 305 305 306 307 308 309 308 308 307 307 308 307 306 307 308 308 307 308 309 309 309 309 309 309 308 308 309 309 309 309 309 309 310 310 310 310 310 310 309 309 309 309 308 308 309 309 309 308 308 308 308 308 308 308 307 307 306 306 306 305 305 305 305 304 303 303 302 302 302 302
300 301 302 303 303 304 305 304 304 304 305 306 307 306 304 304 305 305 305 305 307 308 307 307 307 307 306 307 308 306 306 308 308 307 307 308 308 308 308 307 308 308 308 308 308 308 309 309 309 309 309 309 309 309 308 308 308 309 308 308 308 308 308 308 307 307 307 308 308 307 307 306 306 306 305 305 305 304 304 303 302 302 302 302 302 302 302
300 300 301 302 303 304 304 304 303 305 307 307 308 306 304 303 304 305 305 305 307 308 307 307 307 306 306 306 307 306 306 307 308 307 307 307 307 307 307 307 307 307 307 308 308 308 307 308 308 308 308 308 308 308 307 307 308 308 308 308 307 307 307 307 307 307 307 307 307 306 306 305 305 305 305 304 304 303 303 302 302 302 302 302 301 301 301
300 301 301 301 302 303 304 304 304 306 307 307 306 305 303 303 304 304 304 305 307 307 307 307 307 307 307 306 305 305 306 307 307 307 307 307 306 306 306 306 306 306 307 307 307 307 307 307 308 308 308 308 308 308 308 308 308 308 307 307 307 307 307 308 307 307 307 307 306 306 305 305 305 305 304 304 303 302 302 303 302 302 302 302 302 301 301
300 301 301 301 302 302 304 305 306 306 306 305 305 304 303 303 304 305 305 306 307 307 307 307 307 307 307 306 305 305 306 307 307 306 306 306 306 306 306 306 306 306 306 306 306 306 307 307 308 307 307 307 308 308 308 308 307 307 308 307 307 307 307 307 307 307 306 306 305 305 305 305 304 304 303 303 302 302 302 302 302 302 302 302 301 301 301
298 300 301 302 303 303 304 306 306 305 304 304 305 305 304 305 305 306 306 307 306 306 307 308 307 307 307 307 306 305 306 307 306 306 305 305 305 305 305 305 305 305 304 304 305 306 306 306 307 307 306 307 307 307 307 308 308 307 308 307 307 307 307 306 306 306 306 306 305 305 304 304 303 303 302 302 302 301 301 301 301 302 301 301 302 302 301
298 299 301 302 304 304 305 306 305 303 303 304 305 306 305 305 305 305 306 306 306 306 307 307 307 307 307 307 306 305 306 307 307 306 305 305 305 305 305 305 305 305 304 304 304 305 305 305 305 305 305 306 307 306 306 306 306 307 307 307 307 307 307 306 306 306 306 305 305 305 304 303 303 302 301 301 301 301 301 302 302 302 302 302 302 302 302
302 303 304 304 305 305 305 304 303 303 305 306 305 306 305 305 304 305 305 305 305 306 307 307 307 308 308 308 307 305 305 307 308 306 305 305 305 305 305 305 305 305 305 304 304 305 305 304 304 305 305 306 306 306 305 305 306 305 306 306 306 306 306 306 306 305 305 304 304 303 303 302 302 302 301 302 302 302 302 302 302 302 302 302 303 302 302
303 304 305 305 304 304 304 303 303 304 306 306 305 305 304 304 305 305 305 305 305 306 307 307 307 307 307 308 307 306 305 306 307 306 305 304 305 305 305 304 304 305 305 304 304 305 305 304 304 304 304 305 306 305 305 305 305 305 305 305 305 305 305 305 304 304 303 303 303 302 302 302 302 302 302 302 302 302 302 302 302 302 302 302 303 303 303
301 302 303 303 303 303 303 303 304 305 305 304 304 304 304 304 304 304 304 305 306 306 306 307 308 307 307 307 308 306 305 305 306 306 305 304 304 305 304 303 304 305 304 304 305 305 305 305 306 305 304 304 304 304 304 304 304 304 305 305 305 305 304 304 303 303 302 302 302 302 302 302 302 302 302 302 302 303 303 303 302 302 302 302 303 303 303
302 302 302 302 303 304 304 304 304 304 304 304 304 304 304 304 304 304 304 305 306 306 307 307 308 307 306 306 307 306 305 304 306 306 305 304 304 304 304 304 304 305 304 305 305 304 303 305 306 306 304 304 304 303 303 303 303 303 304 304 304 304 303 303 303 302 302 302 302 302 302 302 302 302 303 303 303 303 303 303 303 302 302 302 302 302 303
302 303 302 302 303 304 303 303 304 304 303 304 304 304 304 304 304 304 305 305 305 306 307 307 307 307 306 306 306 305 304 304 305 305 304 304 304 304 304 304 304 305 305 304 305 304 303 305 307 307 305 304 304 303 303 303 303 303 303 303 303 303 303 302 302 302 302 302 302 302 302 302 302 302 302 303 302 302 302 302 302 302 302 302 302 302 303
304 304 303 302 303 303 302 303 303 303 303 304 304 304 305 305 305 305 306 306 306 306 306 306 306 307 306 306 306 305 304 305 305 304 304 304 304 304 304 304 304 304 304 304 305 304 303 305 308 307 305 304 304 304 303 303 303 303 303 303 303 303 302 302 302 302 302 302 302 302 302 302 302 302 302 302 302 302 302 302 302 302 302 302 302 303 303
305 304 303 302 302 302 302 302 302 302 303 304 305 305 306 306 306 306 307 306 307 307 306 306 307 307 306 306 305 305 305 306 305 304 304 305 304 303 305 305 304 304 304 304 304 304 304 306 308 307 305 304 304 304 303 303 303 303 303 303 303 303 302 302 302 303 303 303 303 302 303 302 302 302 302 302 302 302 302 302 302 302 302 302 302 303 302
304 303 302 301 301 301 302 302 303 303 304 305 305 305 306 307 307 307 307 306 307 307 306 306 307 307 306 306 305 305 305 305 304 304 304 305 304 303 304 304 303 303 304 303 304 304 305 307 309 307 305 305 304 304 303 303 303 303 303 303 303 303 303 302 302 303 303 303 303 303 303 302 302 302 302 302 302 302 302 302 302 302 302 302 302 302 302
304 303 302 301 301 301 302 302 303 304 304 305 305 305 306 306 307 307 306 306 307 307 307 307 307 307 306 305 306 306 306 306 304 304 304 304 304 303 303 302 303 304 304 304 304 305 306 308 308 308 306 305 305 304 304 303 303 303 303 303 303 303 303 303 303 303 303 302 303 303 303 302 302 302 302 302 302 302 302 302 302 302 302 302 302 302 301
303 303 302 301 301 302 303 302 303 304 304 304 304 305 305 306 306 306 306 306 307 307 307 307 307 306 305 305 306 305 305 305 304 303 304 304 303 303 303 303 303 304 304 304 305 307 307 308 308 307 306 305 305 305 304 304 303 303 303 304 304 304 303 303 303 303 303 303 303 303 303 303 302 302 302 302 302 302 302 302 301 301 301 302 302 302 302
303 303 303 302 301 302 303 303 303 303 304 305 305 304 304 304 305 306 306 306 306 307 307 306 306 305 305 305 304 304 305 305 305 304 303 303 303 303 303 303 303 304 305 305 306 307 307 308 308 307 306 305 305 305 305 305 304 303 303 303 304 304 304 303 303 303 303 303 303 303 303 303 302 302 302 302 302 302 302 302 301 301 301 301 301 302 301
303 303 303 302 302 302 302 302 302 303 303 305 305 304 304 305 305 306 306 306 306 307 307 306 306 305 305 304 304 304 305 305 305 304 304 304 304 304 303 303 304 305 306 306 306 307 307 307 307 307 306 306 305 305 305 305 304 304 303 303 303 303 304 303 303 303 303 303 303 303 303 303 302 302 302 302 302 302 302 302 301 301 301 301 301 301 301
302 302 302 302 303 303 303 303 303 303 304 304 304 304 304 305 305 305 305 306 306 306 306 306 306 305 304 304 305 305 305 304 304 304 304 305 305 305 304 305 305 306 307 307 306 306 306 307 307 307 306 306 306 305 305 305 304 304 304 303 303 303 303 303 303 303 303 303 303 303 303 302 302 302 302 302 302 302 302 302 301 301 301 301 301 301 301
Wind_Speed
13 10 6 5 5 5 5 6 8 5 0 1 0 3 4 3 2 8 11 14 16 13 7 7 9 8 8 9 10 9 7 6 5 3 2 1 3 5 6 8 7 5 7 9 13 17 13 14 15 11 13 14 12 20 27 24 22 17 12 13 12 5 5 8 9 10 12 13 15 15 13 13 14 13 13 13 12 13 11 8 8 8 9 10 6 5 4
11 8 5 5 6 6 7 7 8 6 3 1 2 4 4 5 7 8 9 12 13 11 6 5 8 7 8 9 10 10 9 7 6 5 4 2 4 6 7 7 6 4 5 8 11 14 12 13 16 12 12 13 15 23 26 22 19 15 11 11 11 6 7 8 8 9 10 8 9 13 12 11 11 11 14 15 15 16 13 10 8 7 10 12 7 3 5
10 8 5 5 4 6 8 8 9 8 3 3 4 4 5 5 8 9 10 12 11 9 6 4 5 6 8 9 9 8 8 7 6 7 5 5 7 8 7 7 7 6 6 7 9 13 13 12 13 12 10 11 12 20 25 20 17 17 17 15 12 7 8 8 8 11 12 10 9 10 11 10 9 11 16 18 19 20 14 9 8 7 10 13 7 5 7
11 9 6 3 2 5 9 10 10 8 2 6 5 5 5 3 4 7 10 10 11 12 10 9 7 5 6 7 8 10 9 6 4 6 8 9 10 9 8 9 8 8 8 7 7 12 14 11 10 12 10 9 10 17 23 22 18 18 18 16 12 7 6 5 5 6 5 8 12 13 12 12 12 15 18 17 17 18 14 10 8 7 9 8 5 14 15
11 9 5 3 4 6 8 10 9 5 2 5 4 4 5 4 2 7 8 8 10 11 12 11 7 4 5 4 4 9 9 4 3 5 6 7 8 8 9 10 9 8 8 7 6 11 14 12 11 11 10 8 11 16 21 19 13 16 16 16 11 6 5 4 2 2 2 5 9 14 14 16 16 16 16 14 14 14 11 10 6 3 5 3 8 18 19
13 11 7 5 5 5 6 8 7 4 4 4 1 3 4 2 2 7 7 4 6 7 8 9 5 3 6 3 3 6 9 6 4 4 6 7 7 7 7 10 12 10 8 8 7 8 11 13 13 11 10 11 12 15 19 16 12 13 15 14 10 6 5 5 4 6 4 2 4 10 13 15 16 16 14 13 13 11 10 9 4 4 1 5 11 15 16
15 14 11 7 4 4 7 9 7 5 4 4 2 3 4 3 3 5 5 2 4 4 3 4 4 1 3 3 2 5 7 7 6 5 5 6 8 9 8 9 12 12 10 8 7 5 5 11 11 5 5 9 11 12 16 14 12 13 13 11 9 6 5 7 7 8 7 5 5 8 8 6 7 10 11 10 11 12 11 8 2 6 11 14 16 16 15
15 14 14 9 4 5 9 9 7 5 5 4 3 3 4 4 2 1 0 4 5 0 2 1 2 1 3 2 3 5 7 8 8 6 6 6 7 9 11 11 11 11 10 10 8 4 6 10 10 5 2 7 9 9 10 12 13 14 12 9 7 5 4 8 9 7 7 8 8 7 8 9 9 7 7 7 8 9 9 8 11 14 15 17 20 19 13
15 14 13 8 4 6 9 9 7 6 5 5 5 4 6 6 5 4 3 4 2 3 4 4 1 1 0 2 3 4 7 9 8 7 8 10 9 9 11 11 9 9 11 11 7 2 5 6 9 7 6 8 9 7 7 12 14 14 12 8 6 5 5 8 9 7 6 9 11 13 14 15 14 11 8 6 6 8 9 8 9 14 18 19 17 13 9
15 14 13 9 5 5 7 8 8 6 5 5 5 5 8 6 4 3 3 3 1 3 3 4 1 2 4 7 7 6 8 11 10 7 7 9 12 10 8 6 6 7 9 7 2 2 4 6 9 7 10 8 9 9 10 14 14 11 10 8 6 8 7 6 7 7 7 9 11 13 14 12 9 8 5 2 5 10 11 11 11 13 16 12 8 9 12
15 14 13 12 9 7 8 8 9 8 6 6 4 5 7 6 4 4 3 2 0 2 1 2 3 3 4 8 9 8 9 8 9 8 4 5 9 7 5 5 3 3 4 5 6 5 10 9 8 11 12 9 8 9 12 16 14 10 9 8 8 11 9 6 6 6 8 9 8 9 10 8 4 3 2 4 3 11 13 14 14 12 10 9 11 15 17
14 14 14 13 11 10 9 9 9 8 8 7 5 4 6 5 4 4 3 2 1 1 2 3 4 4 4 5 5 6 4 3 5 7 4 3 5 4 5 6 4 4 4 8 11 11 12 12 9 11 13 12 9 7 8 11 11 11 11 8 8 12 9 5 4 6 7 7 7 8 7 3 3 2 1 2 8 15 17 16 14 12 15 18 20 19 18
12 13 12 11 11 10 10 9 9 9 9 9 7 6 6 4 3 5 4 3 1 1 3 5 5 6 6 5 3 2 2 8 11 10 6 4 5 4 2 5 8 7 6 11 14 9 6 8 9 8 11 11 10 9 9 6 5 9 12 9 7 10 8 5 4 5 6 6 6 5 3 3 4 4 5 8 11 12 13 14 12 10 13 17 19 19 19
10 11 11 12 12 12 13 13 13 12 11 10 9 6 5 3 2 3 4 3 2 4 5 5 3 2 3 5 5 1 7 10 11 12 10 8 5 5 8 12 12 9 7 8 10 8 4 4 5 5 5 6 7 8 8 6 4 5 9 10 9 9 7 7 6 4 6 6 4 3 3 4 4 5 7 8 6 4 6 8 7 7 11 16 18 19 21
10 11 13 13 13 14 16 16 16 14 11 8 6 4 3 3 3 2 2 3 4 4 4 1 2 0 2 4 5 1 6 8 8 10 13 13 9 6 8 12 11 7 4 2 5 6 5 4 4 4 3 4 5 6 6 5 5 4 4 5 6 6 6 8 8 5 6 7 5 5 4 3 5 8 9 5 1 4 8 9 6 6 12 17 19 18 22
11 13 13 14 15 16 18 18 16 11 7 3 1 1 3 4 3 3 3 5 5 1 3 4 1 6 7 1 3 4 5 6 6 7 9 11 11 8 6 7 7 6 6 5 4 5 4 4 4 3 2 3 4 4 4 5 5 5 5 4 4 5 5 7 7 7 7 7 6 6 3 2 4 10 11 8 5 5 8 5 4 8 14 19 20 20 23
12 13 13 15 16 18 19 18 14 9 4 3 3 1 2 3 3 3 4 7 6 3 9 8 3 5 6 3 7 6 4 4 6 6 5 8 12 11 6 6 6 5 5 6 5 3 3 3 2 1 1 2 3 4 4 3 4 6 6 5 3 3 4 6 5 5 7 8 5 3 2 3 6 10 11 10 7 8 8 5 5 13 18 20 21 22 23
11 13 14 16 17 18 18 17 14 10 7 5 5 3 2 3 4 3 4 8 7 4 11 12 9 6 5 4 5 6 4 3 4 6 6 7 10 9 8 7 7 8 7 3 2 4 4 3 4 4 4 5 5 5 4 4 4 4 5 5 4 4 4 5 5 5 7 6 4 4 4 4 7 10 11 10 8 7 6 2 9 20 24 22 22 23 23
11 13 15 16 17 18 18 17 15 12 10 7 7 5 2 3 3 3 4 7 8 5 11 13 13 13 11 8 8 9 7 6 6 2 4 5 6 5 7 6 4 6 7 6 5 6 6 6 6 5 6 7 5 5 6 5 4 4 5 5 5 4 5 6 6 6 6 5 5 6 4 2 4 9 10 7 4 3 2 8 19 27 26 23 23 24 23
11 13 15 16 17 18 18 17 15 13 11 9 6 4 2 3 3 2 2 5 8 6 13 15 14 16 15 13 13 13 10 10 12 7 2 4 4 2 4 5 4 5 5 5 5 4 4 5 4 3 6 7 4 4 5 5 4 2 1 2 2 1 2 5 3 1 5 7 6 4 2 3 7 10 7 1 1 5 13 19 24 26 26 26 25 23 21
11 13 15 16 16 17 17 17 15 13 11 9 7 4 4 6 4 2 5 4 5 5 10 13 14 16 16 15 14 14 12 12 12 10 7 6 4 1 1 2 2 2 2 3 3 2 2 3 3 2 3 4 3 5 6 5 5 4 5 2 3 5 4 2 4 4 3 4 4 2 5 10 11 8 6 5 7 14 21 24 24 25 25 26 24 20 20
11 12 14 15 14 15 16 17 16 14 11 10 8 5 4 6 7 8 11 11 6 5 8 10 11 13 14 14 14 13 12 12 10 9 10 7 4 2 2 3 3 3 3 2 1 2 2 2 3 3 3 3 4 6 7 5 5 4 3 2 3 6 5 6 7 6 5 6 6 7 12 14 10 8 11 14 16 19 22 24 26 25 24 23 23 23 23
10 11 13 13 13 13 15 16 16 15 12 10 9 7 2 4 6 7 8 8 5 5 7 8 8 11 13 14 14 12 12 12 12 10 8 7 5 2 3 4 4 2 3 5 4 1 1 2 2 2 4 3 3 6 6 4 4 6 4 4 6 6 6 7 8 8 10 11 9 10 14 14 13 14 16 18 19 21 23 24 25 24 22 22 24 26 26
8 9 10 11 12 13 14 14 14 14 13 11 9 6 4 4 5 4 6 7 4 1 7 10 12 13 13 13 13 13 13 14 13 11 9 7 6 3 3 6 5 2 3 5 5 4 3 2 1 1 3 2 0 4 6 3 5 6 5 5 5 4 2 5 7 8 6 6 7 10 14 15 16 17 17 18 21 22 22 22 23 23 23 24 25 27 27
7 7 8 10 11 11 12 13 13 13 13 12 9 6 6 6 5 4 5 7 7 1 6 9 11 12 11 11 13 15 14 13 12 11 10 8 6 4 3 5 5 4 5 4 2 1 0 1 1 3 4 2 2 2 4 3 4 5 4 4 5 3 3 6 8 5 4 7 10 13 15 16 16 16 18 19 21 21 21 22 23 24 24 25 26 26 26
5 6 7 8 9 10 11 11 12 12 11 11 10 8 7 5 4 3 4 6 8 2 5 6 9 11 11 13 14 15 14 12 11 11 10 8 6 5 4 4 4 3 4 3 2 1 0 1 1 3 4 2 2 1 4 4 4 5 4 4 5 4 4 6 9 10 9 10 13 15 15 14 14 16 18 19 21 22 23 23 24 25 27 27 25 25 24
4 4 5 6 7 8 9 10 10 10 10 9 9 10 10 7 6 4 4 5 6 1 4 5 7 9 12 15 15 14 14 13 11 11 11 9 8 7 6 4 3 3 3 3 2 2 3 4 4 3 4 5 4 3 5 6 6 6 6 5 4 5 6 7 9 9 7 9 15 16 11 10 13 17 18 19 21 23 24 25 26 26 27 27 26 25 25
4 4 3 5 6 7 8 8 9 9 8 7 6 8 11 10 8 5 4 4 5 4 3 6 5 4 7 12 14 14 15 14 12 11 11 11 10 9 8 6 5 4 3 3 3 3 4 5 4 4 5 4 3 4 6 7 6 6 6 5 4 5 7 5 5 6 7 15 21 17 11 14 17 18 19 20 21 23 24 25 26 26 26 27 27 27 27
5 4 2 3 4 5 6 7 8 8 7 6 5 6 7 8 8 6 5 5 5 5 2 6 5 4 5 8 11 12 14 15 14 14 12 12 11 10 9 9 7 6 6 6 6 6 6 6 6 5 4 3 1 4 6 6 5 6 6 5 7 10 8 5 3 8 14 20 20 15 16 21 20 19 21 22 22 24 25 25 26 27 27 27 27 27 26
6 5 2 2 2 4 5 6 7 7 7 6 5 3 1 3 5 5 3 4 3 5 1 3 4 5 5 6 8 9 11 13 14 14 14 13 13 11 10 10 9 7 7 8 8 6 6 7 7 6 5 6 3 3 5 5 5 6 5 4 7 8 8 8 7 13 19 19 16 16 21 24 23 21 22 23 23 25 26 26 27 27 27 27 26 25 25
6 6 4 2 1 3 4 5 6 7 6 7 6 5 2 2 3 3 1 1 2 4 1 3 4 4 4 5 6 7 8 9 10 12 13 12 12 12 10 10 10 9 9 10 10 8 7 6 5 5 4 5 4 1 4 5 6 5 6 7 7 6 7 10 14 19 21 21 21 22 24 25 24 24 24 24 25 26 27 27 27 27 26 26 25 24 24
7 7 6 3 2 1 3 4 6 6 6 7 6 5 4 3 2 2 2 2 1 2 0 3 2 1 2 3 3 5 6 5 5 9 10 10 10 11 11 10 11 11 10 9 9 8 7 7 6 6 4 3 4 1 5 6 6 7 9 11 10 10 13 17 19 20 21 22 25 25 24 24 24 25 26 26 26 26 27 28 27 27 26 25 24 23 23
7 8 7 5 4 2 3 4 5 5 6 6 5 4 3 2 1 1 2 3 1 3 3 1 1 0 1 2 2 2 6 5 2 7 8 8 7 8 9 9 9 9 9 7 6 6 6 7 7 6 5 5 4 4 6 6 8 11 12 12 12 14 17 18 19 19 21 22 22 22 23 25 26 26 27 27 26 27 28 28 27 26 26 25 24 24 23
7 8 9 8 6 4 4 4 4 4 4 4 3 1 1 2 1 1 1 1 2 3 2 2 2 1 1 1 2 3 6 6 3 5 6 5 5 5 7 7 7 7 7 7 6 6 6 6 6 6 6 7 7 6 6 7 11 14 14 14 15 16 18 18 18 20 21 20 20 21 25 27 28 27 27 27 27 27 27 26 26 27 26 25 24 23 22
7 8 8 9 8 6 5 5 5 5 4 3 2 2 1 2 1 2 1 2 3 3 1 2 4 2 2 3 2 3 4 4 5 6 5 4 5 5 6 6 5 5 4 4 5 7 5 1 1 4 5 5 5 4 5 9 13 14 14 15 17 18 19 20 20 20 21 21 22 25 26 27 28 28 27 27 27 27 27 26 26 25 24 24 23 22 21
8 7 7 7 8 7 7 6 6 5 6 5 3 3 2 1 0 1 1 2 5 4 1 3 5 2 0 1 3 3 1 0 4 5 4 4 4 5 5 6 5 5 5 5 6 6 3 3 2 3 5 4 4 6 9 12 14 14 15 17 18 18 19 20 21 22 23 23 25 27 26 26 27 27 27 27 27 26 26 25 24 24 23 23 22 21 20
8 7 6 5 5 7 8 7 6 6 6 5 4 4 2 1 2 2 1 3 4 4 5 5 2 1 2 2 4 2 3 2 3 2 2 3 3 3 4 4 3 3 5 6 5 5 6 4 3 5 6 5 7 11 13 14 15 15 16 18 18 19 20 21 22 24 26 25 26 26 26 25 25 25 26 26 26 25 25 24 23 23 23 22 21 19 19
8 8 6 5 5 7 7 6 7 8 7 4 3 3 3 4 5 4 4 4 3 3 5 6 1 2 1 0 3 2 2 1 2 2 2 2 2 1 2 2 1 0 2 4 4 3 6 7 5 5 7 8 10 13 14 15 16 16 17 18 18 19 20 22 23 25 26 25 25 26 26 26 26 25 26 26 25 25 24 22 21 21 21 20 18 18 18
5 6 7 8 8 6 4 4 6 8 5 3 3 3 4 5 5 4 4 5 4 3 5 4 1 2 2 1 4 2 2 3 1 3 2 2 1 1 1 1 0 1 2 4 2 1 2 5 5 5 6 7 9 11 13 14 15 16 16 17 18 19 20 22 23 23 23 23 23 24 25 26 27 26 26 26 25 23 22 21 20 20 19 18 17 17 17
2 4 6 7 6 4 3 4 5 5 4 5 6 5 4 5 5 3 3 5 5 3 3 2 1 1 2 2 2 4 1 4 3 2 4 3 2 2 1 2 0 1 2 4 1 1 2 4 5 5 5 6 9 11 12 13 14 14 15 17 19 20 21 22 22 20 20 21 22 23 23 25 25 25 25 25 23 22 21 20 19 19 18 16 16 15 15
4 5 5 3 2 2 4 5 5 5 5 6 6 4 3 4 4 2 3 4 4 3 3 3 3 5 3 3 0 4 4 1 4 3 4 4 2 2 1 3 0 1 3 4 2 2 2 4 4 4 6 9 12 13 13 14 15 15 16 17 19 21 22 22 21 20 21 22 22 23 23 24 24 24 23 22 21 20 19 19 18 17 17 16 14 14 13
4 5 4 3 1 3 4 5 6 7 5 4 4 3 3 3 3 4 5 4 2 3 5 5 3 3 4 2 2 4 4 1 2 2 2 2 1 2 1 2 1 0 3 4 2 3 3 4 4 5 8 13 15 14 14 15 16 17 18 18 19 21 21 21 20 21 22 22 23 23 24 23 23 22 21 20 19 18 18 17 16 16 16 15 14 13 12
4 5 4 3 2 3 4 6 7 6 3 2 3 3 3 3 4 4 5 4 2 3 6 5 2 3 5 3 1 3 3 1 2 2 1 3 1 1 0 1 0 1 3 2 3 3 3 3 3 7 12 16 16 15 15 16 17 18 19 20 20 20 20 20 21 22 22 22 22 23 23 22 21 20 19 18 18 17 16 16 15 15 14 14 13 12 12
3 2 2 2 3 4 4 4 5 5 3 3 4 4 4 5 5 4 3 5 5 6 7 7 7 6 6 4 3 3 4 3 2 0 2 3 2 1 1 1 1 2 3 3 3 2 3 2 5 12 17 18 17 16 17 19 19 20 20 20 20 21 21 21 22 23 22 22 22 22 21 21 20 19 18 17 17 16 16 15 15 14 14 13 12 12 12
1 2 3 3 2 3 3 2 3 4 4 4 5 5 5 5 6 5 4 5 6 6 8 9 9 8 7 5 4 4 4 4 3 2 2 2 2 1 1 2 2 2 3 3 2 3 3 3 7 15 20 20 19 19 20 20 20 21 21 21 21 21 22 23 23 22 22 22 22 21 20 20 20 19 18 17 16 16 15 15 15 14 13 12 12 12 13
4 5 5 3 2 3 4 3 3 4 5 5 6 7 6 6 7 5 4 5 6 6 9 10 9 8 8 6 3 3 4 4 3 2 2 2 2 2 1 1 1 2 3 2 3 4 4 5 9 16 21 22 21 21 21 21 21 21 22 22 22 22 23 23 23 21 21 22 22 21 20 19 19 18 18 17 16 16 15 14 14 13 13 13 13 13 13
5 6 5 3 3 5 5 4 4 6 6 7 9 11 10 8 5 3 4 4 6 6 9 10 8 7 8 7 4 3 4 4 3 2 2 1 2 2 0 1 2 3 3 3 4 4 3 7 13 18 22 24 24 23 23 23 23 22 22 22 23 23 23 23 22 21 21 22 21 20 20 19 19 18 18 17 16 16 15 14 13 12 12 13 13 13 13
6 5 5 4 3 4 5 7 8 8 7 7 9 10 9 6 5 4 5 5 5 5 9 10 7 5 6 7 5 4 4 4 4 2 1 1 2 2 2 2 3 3 3 4 4 3 4 9 16 21 23 25 25 25 24 24 24 24 24 23 24 24 24 24 22 21 22 22 21 20 19 19 19 18 17 17 16 15 15 14 13 12 11 12 13 13 14
7 5 4 5 4 5 7 9 9 8 8 8 9 9 8 8 9 9 8 7 6 7 9 9 7 5 6 6 4 3 3 4 3 2 2 2 3 3 2 2 3 4 4 4 3 2 5 10 17 22 24 25 26 26 25 25 25 26 25 24 24 24 24 24 23 22 22 22 21 20 19 19 19 18 17 16 16 15 15 15 14 12 11 12 13 13 14
7 7 7 7 6 6 7 7 6 6 7 8 8 9 10 11 11 9 8 8 8 9 9 8 7 5 4 5 4 4 4 4 3 3 4 4 4 4 3 4 4 4 4 4 3 4 7 12 17 21 24 25 26 26 25 25 26 26 25 25 24 24 23 23 23 23 22 22 21 20 19 19 18 18 17 17 16 15 15 15 14 13 11 11 12 13 13
6 7 9 11 10 9 7 7 7 6 7 8 9 9 9 11 11 9 8 9 10 8 7 7 7 4 3 4 4 3 3 3 4 4 5 5 4 4 4 5 5 3 4 5 5 5 7 11 16 19 23 25 26 25 25 26 26 26 26 25 25 24 24 23 23 23 22 21 20 20 20 19 18 17 17 16 16 16 16 15 15 14 12 11 12 12 12
6 7 9 12 14 14 10 9 8 8 8 10 9 8 8 10 9 7 7 9 10 9 9 9 8 5 4 5 5 3 2 3 4 5 5 4 4 4 5 5 5 4 4 6 6 6 6 9 14 18 22 24 25 26 25 26 26 26 26 26 26 25 25 24 23 22 22 21 20 20 20 19 18 17 17 16 17 17 17 16 16 15 13 13 12 12 12
Wind_Direction
359 359 2 27 27 11 11 7 4 5 48 99 114 215 209 222 136 126 156 168 172 189 214 206 209 222 224 233 249 250 245 248 246 228 213 285 270 262 260 255 253 231 234 241 208 189 181 186 194 192 178 181 194 188 183 185 187 189 200 186 172 195 223 196 197 201 193 188 192 197 207 212 203 204 219 218 204 209 219 222 216 212 223 230 212 142 116
7 16 19 22 26 24 22 6 354 345 307 256 179 219 228 183 134 120 149 167 182 209 232 211 208 213 219 235 248 249 245 241 240 235 218 232 266 265 262 252 248 234 236 254 229 198 180 185 194 194 179 178 193 189 182 187 188 184 195 185 162 181 216 195 189 191 186 190 196 192 198 216 214 201 209 217 212 209 219 232 223 219 230 226 207 139 131
8 14 7 8 32 33 17 0 348 338 294 206 197 245 243 175 130 125 152 173 203 232 258 277 252 216 217 244 253 251 248 235 244 266 254 242 256 263 270 263 265 274 260 257 243 210 187 180 190 195 178 166 184 187 183 190 193 184 189 184 166 187 211 195 200 200 187 188 197 194 193 203 215 210 205 212 216 209 207 220 219 217 232 228 204 131 126
8 9 8 9 18 11 4 359 353 343 269 193 197 241 253 224 130 137 162 186 218 240 253 262 265 243 225 243 252 247 238 210 217 264 261 252 253 258 272 276 278 279 257 248 245 212 188 172 187 189 163 155 183 184 183 193 190 175 177 178 171 190 208 195 221 227 207 203 199 194 194 196 205 213 208 211 222 216 205 209 214 210 226 233 147 129 137
8 10 18 10 357 2 4 5 5 4 153 164 181 242 266 277 158 155 169 192 211 228 242 242 245 243 225 232 256 237 230 219 210 232 246 252 256 261 266 260 261 266 244 229 231 204 179 168 183 172 143 162 188 183 188 192 164 144 165 183 184 188 186 176 178 181 266 259 207 189 194 199 201 207 208 211 222 227 219 207 199 222 242 228 124 132 140
8 10 8 349 349 3 10 16 28 59 110 120 119 276 269 267 169 165 165 184 211 210 227 239 240 242 235 247 313 256 244 255 254 241 253 254 248 255 257 244 243 249 238 221 222 207 179 176 187 171 149 172 183 182 190 184 146 150 180 188 190 193 178 169 157 157 172 260 212 194 200 205 205 203 201 205 211 215 224 229 255 341 38 140 140 137 133
8 10 7 0 1 8 19 38 59 77 87 82 31 314 282 254 207 172 159 231 264 218 207 231 215 247 287 275 295 281 264 262 262 263 268 256 242 241 249 249 237 232 237 230 219 223 195 180 179 166 158 181 179 178 185 177 165 182 189 178 183 196 176 168 163 151 152 160 176 189 188 178 184 189 188 202 213 206 210 222 197 88 104 124 131 124 119
6 7 7 12 28 19 30 54 67 65 64 51 23 339 319 312 325 53 214 275 275 222 72 94 174 49 353 309 274 270 264 267 272 269 262 257 248 232 235 249 242 228 234 225 206 229 232 189 156 127 170 195 187 181 176 172 179 189 186 172 173 176 160 166 161 135 135 151 150 152 143 114 103 123 152 176 192 177 155 133 112 104 106 116 121 117 113
7 8 10 21 45 32 35 47 42 43 49 17 349 349 353 339 337 1 332 286 282 91 84 79 76 354 312 246 272 259 254 267 275 274 265 254 247 233 227 240 255 251 234 213 192 227 233 177 120 127 198 201 187 191 177 168 180 189 181 162 155 169 173 173 170 154 147 151 141 134 129 114 100 94 97 123 143 130 114 108 114 124 127 127 126 125 129
16 19 26 38 54 38 28 25 20 24 34 13 349 351 359 347 322 334 317 289 57 96 106 108 127 252 207 213 230 237 252 261 255 256 264 244 239 245 247 255 269 250 216 187 100 41 163 118 93 142 213 210 178 193 198 179 179 184 170 153 159 177 179 178 179 165 146 146 142 139 137 130 116 97 72 58 110 109 98 81 82 116 137 143 142 139 141
29 37 44 47 49 36 21 15 14 15 15 15 6 347 354 355 334 315 300 291 75 127 153 174 207 252 230 218 231 251 265 261 235 228 233 210 212 225 261 281 270 208 159 106 59 85 130 123 110 148 176 177 166 184 189 180 180 180 166 162 175 182 184 190 183 156 137 144 158 174 178 173 143 98 316 289 111 103 96 83 74 84 99 99 107 125 135
36 43 48 50 48 39 28 20 14 10 3 2 358 332 332 343 328 309 309 318 307 250 265 254 248 280 285 252 259 280 300 83 150 195 202 144 161 184 242 242 198 152 130 109 94 94 117 130 123 116 121 130 139 142 147 163 181 185 178 180 184 179 177 173 165 150 137 146 175 195 195 175 126 134 297 27 87 93 88 80 74 80 94 101 110 125 136
37 37 40 41 38 27 18 9 358 350 343 339 330 311 313 324 311 300 304 307 295 258 276 281 270 274 281 277 273 278 73 92 119 147 151 126 131 134 158 157 137 131 125 113 107 99 104 129 126 93 84 102 116 109 100 110 162 184 189 195 189 177 166 144 140 145 143 159 188 191 159 108 118 137 114 99 110 115 95 74 65 80 107 116 121 127 130
32 30 29 25 18 6 357 351 343 334 325 315 306 297 302 302 282 289 291 292 285 241 244 273 284 260 276 292 293 44 87 87 101 113 113 111 107 83 90 106 116 123 118 118 137 154 150 125 120 97 81 101 118 118 115 106 106 155 180 182 183 192 182 149 140 158 163 156 135 109 135 151 147 155 154 138 132 132 104 86 77 93 114 122 125 126 127
23 22 20 13 3 353 347 346 343 334 321 307 296 290 282 256 234 235 245 275 292 246 215 175 47 233 256 277 281 313 88 88 90 97 100 104 104 96 102 111 117 118 100 109 154 144 123 115 112 106 132 158 142 133 137 133 121 122 134 148 171 201 194 155 151 177 181 161 144 148 171 177 169 179 183 173 82 78 106 107 103 119 130 133 132 131 133
16 16 12 3 354 348 347 350 351 342 329 328 333 276 267 252 245 248 245 267 287 319 80 66 16 265 270 293 63 53 68 90 105 105 101 108 116 122 128 126 112 83 56 57 81 77 64 85 111 116 151 169 148 137 145 150 146 132 113 116 158 184 183 174 174 177 175 178 181 173 156 85 143 164 173 186 203 174 150 139 135 147 148 144 139 137 139
9 5 359 354 352 350 351 357 0 1 6 34 61 57 285 284 282 265 251 267 282 41 52 30 347 266 281 12 53 37 34 91 111 107 103 115 118 121 147 165 142 119 88 65 67 79 68 68 107 146 131 158 158 143 144 148 137 133 133 143 190 211 183 178 185 178 178 188 181 131 66 60 127 148 161 170 177 184 195 214 171 155 155 151 145 143 143
359 354 352 354 355 353 358 6 10 18 31 36 43 45 324 297 299 272 252 273 287 43 46 22 25 40 14 16 31 19 18 53 84 102 115 118 116 130 164 171 170 181 180 159 144 154 146 165 193 173 142 160 165 147 149 153 139 144 147 149 186 207 173 169 194 190 176 177 146 99 79 90 122 141 155 155 157 185 216 206 141 149 153 151 147 145 144
353 353 353 356 358 359 7 15 17 25 36 34 38 38 339 306 316 279 252 282 301 37 49 28 33 42 30 23 27 20 14 360 359 52 136 119 104 140 165 156 175 199 185 180 186 180 174 182 183 163 151 156 152 137 141 137 129 154 163 160 178 188 167 173 196 197 181 160 120 114 110 95 139 144 141 144 171 192 124 109 131 143 146 146 145 143 142
353 355 356 0 3 5 13 20 22 30 38 35 46 52 336 337 340 282 259 297 309 22 49 34 34 42 38 35 29 16 11 6 1 359 52 81 76 183 183 163 187 199 173 175 189 189 189 177 163 161 158 149 141 138 131 103 79 90 115 136 118 64 200 179 149 161 194 165 136 131 129 150 168 156 132 80 297 122 118 123 131 137 138 140 140 140 140
352 356 360 4 7 9 18 24 24 33 37 33 51 64 345 353 12 42 77 45 325 359 46 39 37 43 39 36 31 20 17 18 5 350 356 37 54 317 265 125 151 183 174 191 187 170 191 172 147 145 147 140 156 164 147 128 107 59 8 19 69 14 320 192 82 8 270 172 133 91 108 134 160 162 123 96 109 124 130 131 130 133 136 137 136 137 137
349 357 1 7 10 13 22 27 27 34 37 31 49 64 351 357 37 61 72 68 33 13 36 37 40 45 39 34 33 27 22 21 15 356 344 350 8 1 20 55 50 29 4 324 271 146 161 170 156 153 152 152 162 160 158 158 143 110 33 16 56 37 43 87 75 44 41 75 88 95 103 116 127 115 108 115 119 126 133 131 130 133 136 135 134 134 134
346 356 2 8 14 15 22 27 27 33 37 32 44 63 14 352 32 44 42 38 28 37 46 40 42 44 37 31 31 31 27 22 21 17 355 333 330 7 68 55 34 31 24 1 346 337 174 174 174 154 143 135 143 155 160 164 146 132 98 58 64 76 85 85 89 99 84 68 77 102 106 108 109 105 111 119 122 127 131 129 130 133 134 135 136 134 134
340 352 3 11 16 17 22 27 27 31 38 37 40 59 60 24 8 5 4 344 309 60 67 52 42 35 29 27 27 26 24 20 15 15 13 354 337 347 60 45 22 24 54 32 5 355 30 69 54 115 117 81 41 167 157 137 133 133 118 96 97 105 104 97 120 146 129 80 94 113 111 110 110 109 114 120 123 129 132 129 130 132 131 132 134 133 134
332 346 2 12 18 19 19 24 27 28 33 37 40 53 61 31 357 6 23 336 302 287 82 61 46 38 30 32 31 22 18 19 16 14 17 12 353 346 20 30 25 35 47 35 345 298 123 154 214 154 127 47 324 175 134 119 142 142 129 115 108 123 158 123 106 109 110 114 126 123 113 113 114 114 120 125 127 130 131 129 129 130 130 131 132 133 135
321 337 356 12 21 19 15 18 23 21 22 30 39 49 57 31 354 41 56 347 325 5 96 77 59 52 42 36 33 23 17 19 21 22 27 29 26 31 42 46 51 58 52 41 21 7 96 177 195 148 132 81 352 102 99 104 133 126 103 86 84 112 146 112 94 99 107 121 135 131 119 117 119 119 122 127 130 131 130 128 129 131 132 132 132 134 136
303 321 349 9 16 15 13 13 14 13 13 19 31 45 53 40 14 21 31 348 330 9 107 91 76 65 49 38 32 26 23 25 26 31 36 40 44 52 56 62 81 93 83 82 77 56 72 77 60 70 100 97 89 91 94 103 114 109 98 83 84 126 130 104 111 132 139 147 155 151 135 129 132 130 129 131 133 133 131 130 132 134 135 134 134 135 136
285 296 334 3 10 12 12 7 3 3 6 7 21 42 47 38 23 19 37 24 353 348 62 87 84 64 41 34 29 28 30 32 33 38 44 47 50 55 58 59 72 76 63 70 94 96 85 77 73 89 99 91 93 107 109 116 121 110 91 57 51 109 127 130 145 150 142 153 161 157 135 132 140 140 137 137 137 137 136 135 137 138 137 136 136 136 137
271 270 304 352 7 11 7 1 359 356 354 359 11 28 39 37 28 30 74 82 27 353 57 99 78 49 34 26 24 31 37 38 40 43 48 51 53 56 60 60 63 68 66 66 72 78 76 61 60 78 68 15 352 145 133 132 128 108 85 57 61 79 79 54 76 116 132 149 159 148 127 133 142 142 140 141 140 139 138 138 139 138 137 137 137 137 138
259 251 263 312 1 13 1 357 358 353 353 2 355 319 197 91 41 19 64 100 24 335 320 108 78 65 56 29 21 30 35 36 40 43 46 49 51 53 57 60 64 70 77 78 76 83 92 78 66 73 53 13 1 162 151 131 115 107 103 96 84 79 60 40 75 124 136 141 142 131 126 132 136 137 139 141 140 139 139 138 138 138 137 137 138 138 139
249 240 242 257 329 9 357 355 357 356 7 12 348 311 277 100 52 12 19 109 350 325 344 102 105 106 82 38 14 18 25 30 38 42 44 46 49 51 54 59 62 64 74 82 78 73 82 84 82 105 90 26 1 162 145 126 119 121 128 123 107 100 98 91 104 124 131 128 126 126 125 128 132 135 138 140 140 139 139 137 137 138 139 139 139 139 139
242 232 232 238 252 323 348 352 349 357 22 28 10 1 17 38 43 37 65 87 69 293 307 106 130 169 85 68 40 9 359 2 32 43 41 40 46 55 58 60 63 63 67 80 79 68 71 75 77 95 92 9 329 181 130 120 122 125 128 125 114 111 116 112 111 120 127 128 130 129 128 131 136 137 137 139 140 139 138 138 139 140 139 138 137 137 137
237 229 230 233 236 260 308 328 332 355 27 31 22 30 43 46 64 81 69 76 78 285 305 14 160 211 39 97 119 6 327 311 22 57 45 34 42 62 66 65 67 62 55 61 76 79 87 93 90 86 63 20 18 86 94 100 122 129 130 127 121 118 121 121 119 123 129 134 136 134 132 135 137 136 136 138 139 139 139 139 140 140 139 138 137 137 136
234 228 230 232 234 249 278 294 309 339 2 2 358 350 359 37 68 213 289 3 260 262 293 299 226 150 96 192 157 43 351 335 28 66 53 33 32 60 77 75 67 57 49 59 81 89 91 99 106 101 75 55 62 80 92 112 129 134 132 130 129 129 128 129 130 132 135 136 134 132 132 134 135 135 137 138 139 140 141 141 141 141 139 139 139 138 137
230 226 229 234 237 246 261 278 296 302 295 295 284 247 264 44 73 238 276 309 272 250 213 261 257 214 169 199 145 57 12 4 44 59 70 68 45 49 79 85 64 49 45 57 88 94 83 64 137 123 103 82 77 93 126 135 136 137 137 136 138 139 137 136 138 138 137 136 133 132 134 135 136 137 139 140 142 143 143 143 143 142 140 139 139 140 139
225 223 226 233 240 248 257 266 273 271 268 264 248 233 223 93 33 288 319 304 291 299 286 238 243 242 216 109 94 76 313 157 84 74 90 98 59 42 77 92 77 67 64 62 81 92 66 312 269 133 111 92 84 104 128 138 139 141 142 142 144 145 143 141 142 141 138 136 135 136 138 140 140 141 142 143 144 146 146 145 145 143 141 141 141 141 142
224 223 223 224 233 245 251 250 246 251 260 258 235 218 206 189 224 249 253 265 286 304 290 271 269 21 3 39 100 132 250 220 130 94 79 96 78 47 65 84 92 97 85 72 72 76 60 45 81 108 98 88 95 110 126 137 139 140 142 144 145 145 142 141 142 141 138 138 139 141 143 144 143 144 144 145 147 148 147 146 146 145 143 143 143 144 145
222 220 222 223 227 233 239 233 227 234 243 240 214 203 211 230 237 224 214 231 245 244 258 273 323 108 208 51 106 127 291 286 150 134 79 96 116 75 68 73 50 199 105 88 77 71 72 75 88 99 97 100 109 117 125 132 135 138 142 142 143 144 143 144 145 144 142 144 148 150 149 148 147 147 146 146 147 148 147 146 146 145 144 144 145 146 147
215 214 217 222 222 225 237 234 226 229 226 202 201 213 212 226 242 230 207 225 240 218 227 246 213 161 215 142 111 120 306 301 213 154 115 80 17 345 118 113 304 240 138 114 115 211 105 99 106 113 113 116 120 122 126 130 133 137 142 142 143 145 146 147 149 149 148 150 152 152 151 150 149 148 147 147 147 148 148 147 147 147 148 148 147 149 152
182 202 214 223 224 226 243 238 223 219 208 196 208 232 233 224 234 235 209 223 228 206 210 234 154 128 298 315 119 135 206 315 331 66 102 90 2 332 92 95 51 233 128 104 107 244 132 119 130 132 128 132 134 133 135 137 137 140 143 143 144 146 147 149 150 150 149 149 149 149 150 149 148 147 147 148 148 148 148 148 149 150 151 151 151 154 156
177 187 205 233 240 214 223 223 204 200 211 208 206 225 239 225 221 227 226 229 220 188 201 233 189 163 203 265 254 126 137 324 342 26 91 91 355 310 97 99 185 257 94 97 141 206 138 134 147 136 125 135 142 143 142 140 139 142 145 145 144 145 146 148 148 148 148 148 148 148 148 148 147 147 147 148 149 148 149 150 151 153 154 154 156 159 160
189 193 201 224 228 189 197 204 193 193 214 230 215 215 230 223 215 219 225 236 242 170 182 212 216 140 144 155 56 80 109 144 282 279 137 105 6 318 98 119 224 254 90 108 182 196 144 140 144 129 131 141 145 145 142 140 140 144 146 146 147 147 148 149 148 148 148 148 147 147 149 148 147 148 148 149 150 150 150 151 154 158 159 160 162 166 167
178 182 181 182 198 200 205 207 196 190 213 240 204 198 213 212 216 225 220 222 241 197 177 184 190 121 132 145 100 81 102 162 269 296 80 109 141 262 135 141 211 89 105 152 205 186 158 163 150 137 143 148 149 148 146 143 142 143 145 147 149 149 149 149 148 147 148 148 147 148 149 149 148 149 150 151 152 153 153 156 160 163 164 165 169 175 175
146 163 167 174 196 202 201 201 193 192 212 215 194 198 209 205 213 231 205 179 193 196 177 178 192 187 173 182 183 138 139 187 236 355 94 130 173 210 135 118 94 100 141 197 206 147 132 135 130 138 147 152 154 154 151 148 147 147 146 148 151 150 149 150 149 149 149 150 149 150 151 151 152 153 154 154 156 158 159 163 167 170 171 172 175 179 177
209 241 212 191 199 205 194 191 194 200 213 214 206 210 209 199 209 221 188 160 176 183 172 179 192 183 161 165 183 180 179 188 179 156 170 184 171 83 68 103 123 158 199 209 186 151 147 137 134 144 153 158 159 158 156 155 154 153 151 151 153 154 154 154 153 152 152 152 153 154 155 154 155 158 159 161 164 165 166 169 172 174 177 178 178 177 175
253 237 212 198 230 225 212 202 197 205 215 217 215 219 222 217 213 203 165 164 191 186 169 176 189 178 162 166 183 193 192 181 150 138 202 190 134 83 35 72 167 213 225 210 190 189 185 161 151 155 160 161 161 161 161 160 159 159 158 158 158 158 158 159 158 156 156 156 157 158 159 158 160 163 165 166 168 170 172 174 175 177 178 178 177 175 174
259 239 220 217 223 216 214 218 217 215 217 218 218 223 228 228 217 156 134 182 211 185 163 175 190 176 163 175 196 198 189 177 142 135 218 194 118 110 199 243 220 215 206 200 211 217 184 151 154 160 163 163 162 163 164 165 165 165 164 163 162 162 162 163 163 162 161 160 161 162 162 163 165 166 168 169 170 171 173 174 174 176 177 177 175 174 175
255 237 222 223 217 203 210 221 225 225 224 224 226 227 227 230 229 199 173 190 211 184 165 176 186 167 162 184 207 204 174 153 135 144 198 157 119 144 193 227 222 217 210 208 214 211 161 148 153 159 163 165 166 166 168 169 169 170 169 168 167 168 167 166 166 166 164 164 165 166 166 166 167 168 170 172 173 174 175 174 173 175 178 178 178 178 179
249 248 241 240 244 233 220 219 225 228 219 214 220 225 223 227 231 217 189 182 201 196 177 177 185 179 171 181 201 200 173 159 156 170 191 186 178 185 197 203 202 208 219 225 214 157 135 145 152 159 164 168 169 170 171 172 173 173 174 173 172 172 172 172 172 171 169 170 171 170 170 170 172 173 175 177 178 179 179 178 177 179 182 184 186 186 186
237 245 240 233 236 237 222 215 228 235 216 203 209 216 217 221 223 210 187 186 199 194 181 182 195 194 171 168 190 210 204 189 181 181 188 198 207 208 202 206 213 210 203 201 186 140 135 145 154 161 166 170 172 173 173 174 174 176 177 177 176 176 176 176 175 175 175 176 176 175 175 176 178 180 180 181 183 183 183 183 184 186 188 190 192 192 192
224 235 236 232 235 237 223 210 221 234 223 209 206 205 209 216 215 199 185 194 199 190 181 189 195 187 170 184 202 207 186 173 185 198 204 211 217 207 200 211 225 214 170 160 157 147 146 154 161 166 169 172 175 176 175 174 175 176 177 178 179 179 179 179 179 179 180 180 180 180 181 183 185 186 186 186 187 188 189 190 191 193 193 193 194 193 192
221 225 230 233 239 243 237 222 224 236 236 225 211 196 199 213 209 186 180 199 204 198 196 197 192 183 189 201 203 193 163 172 204 219 217 210 208 207 214 226 231 210 169 155 155 158 159 161 167 171 173 175 176 177 175 174 175 177 178 179 180 181 181 182 182 182 182 182 183 185 187 188 190 191 191 192 193 194 194 195 197 197 197 196 196 196 196